IK2ILW-6 Weather Reports


time (UTC)temp
C
wind
direction
speed
KPH
gust
KPH
rain 1hr
cm
rain 24hr
cm
rain mn
cm
humidity
%
barometer
mb
20260506045130 1 125 17.7 29.0 0.20 10.39 0.61 97 1010.3
20260506044634 1 164 17.7 29.0 0.10 10.31 0.58 97 1010.3
20260506044139 2 355 9.7 25.7 0.10 10.31 0.58 97 1010.3
20260506043623 2 144 19.3 25.7 0.10 10.31 0.58 97 1010.4
20260506043128 1 113 11.3 27.4 0.10 10.31 0.58 97 1010.3
20260506042632 2 126 17.7 27.4 0.10 10.31 0.58 97 1010.3
20260506042137 2 142 8.0 32.2 0.10 10.31 0.58 97 1010.2
20260506041642 2 138 11.3 32.2 0.10 10.31 0.58 97 1010.2
20260506041127 2 151 16.1 32.2 0.10 10.31 0.58 97 1010.1
20260506040632 2 123 22.5 30.6 0.10 10.31 0.58 97 1010.1
20260506040141 2 279 11.3 25.7 0.00 10.21 0.56 97 1010.0
20260506035626 2 30 16.1 25.7 0.00 10.21 0.56 97 1010.3
20260506035130 2 132 16.1 24.1 0.00 10.21 0.56 97 1010.3
20260506034635 2 134 16.1 24.1 0.10 10.21 0.56 97 1010.3
20260506034138 2 193 14.5 24.1 0.10 10.21 0.56 97 1010.2
20260506033624 2 128 9.7 24.1 0.10 10.21 0.56 97 1010.2
20260506033129 2 51 9.7 24.1 0.10 10.21 0.56 97 1010.2
20260506032634 2 98 16.1 27.4 0.10 10.21 0.56 97 1010.3
20260506032140 2 124 20.9 27.4 0.10 10.21 0.56 97 1010.2
20260506031625 2 145 17.7 27.4 0.10 10.21 0.56 97 1010.4
20260506031133 2 128 19.3 27.4 0.10 10.21 0.56 97 1010.5
20260506030638 2 124 17.7 29.0 0.10 10.21 0.56 97 1010.5
20260506030123 2 135 17.7 29.0 0.10 10.21 0.56 97 1010.5
20260506025630 3 138 12.9 22.5 0.10 10.21 0.56 97 1010.7
20260506025134 3 150 14.5 20.9 0.10 10.21 0.56 97 1010.8
20260506024638 3 118 12.9 22.5 0.00 10.11 0.53 97 1011.0
20260506024123 3 134 16.1 22.5 0.00 10.11 0.53 97 1011.1
20260506023627 3 277 8.0 16.1 0.00 10.11 0.53 97 1011.0
20260506023133 3 144 8.0 19.3 0.00 10.11 0.53 97 1011.1
20260506022638 3 80 9.7 24.1 0.00 10.11 0.53 97 1011.2
20260506022127 3 148 11.3 24.1 0.10 10.11 0.53 97 1011.2
20260506021632 3 77 11.3 22.5 0.10 10.11 0.53 97 1011.1
20260506021137 3 78 14.5 22.5 0.10 10.11 0.53 97 1011.3
20260506020641 3 145 9.7 20.9 0.10 10.11 0.53 97 1011.2
20260506020126 3 360 9.7 20.9 0.20 10.11 0.53 97 1011.3
20260506015631 3 138 11.3 24.1 0.20 10.11 0.53 97 1011.3
20260506015136 3 148 16.1 25.7 0.20 10.11 0.53 97 1011.3
20260506014641 3 115 16.1 24.1 0.30 10.11 0.53 97 1011.3
20260506014125 3 132 14.5 24.1 0.30 10.11 0.53 97 1011.3
20260506013631 3 137 17.7 24.1 0.41 10.11 0.53 97 1011.1
20260506013136 3 136 14.5 24.1 0.41 10.11 0.53 97 1011.1
20260506012624 3 121 14.5 24.1 0.41 10.11 0.53 97 1011.2
20260506012129 3 128 17.7 25.7 0.51 10.01 0.51 97 1011.5
20260506011633 3 138 16.1 25.7 0.71 10.01 0.51 97 1011.2
20260506011138 3 161 16.1 22.5 0.71 10.01 0.51 97 1011.2
20260506010642 3 138 16.1 22.5 0.71 10.01 0.51 97 1011.5
20260506010127 3 94 6.4 20.9 0.61 9.91 0.48 97 1011.5
20260506005631 3 121 12.9 24.1 0.71 9.91 0.48 97 1011.6
20260506005135 3 133 11.3 25.7 0.61 9.80 0.46 97 1011.6
20260506004639 3 129 19.3 29.0 0.79 9.80 0.46 97 1011.6
20260506004142 3 134 12.9 32.2 0.79 9.80 0.46 97 1011.7
20260506003631 3 142 20.9 32.2 0.79 9.70 0.43 97 1011.7
20260506003135 3 303 19.3 32.2 0.79 9.70 0.43 97 1011.6
20260506002639 3 117 17.7 27.4 0.79 9.70 0.43 97 1011.7
20260506002125 3 128 17.7 27.4 0.51 9.40 0.36 97 1011.9
20260506001630 3 121 17.7 29.0 0.41 9.30 0.33 97 1012.0
20260506001135 3 155 19.3 30.6 0.41 9.30 0.33 97 1012.1
20260506000640 3 124 22.5 33.8 0.51 9.30 0.33 97 1012.0
20260506000126 3 126 16.1 32.2 0.61 9.30 0.33 97 1012.0
20260505235631 3 126 24.1 32.2 0.61 9.19 0.30 97 1011.9
20260505235136 3 123 17.7 25.7 0.61 9.19 0.30 97 1012.0
20260505234625 3 126 14.5 25.7 0.51 8.99 0.25 97 1012.0
20260505234130 3 53 16.1 22.5 0.89 8.99 0.25 97 1012.0
20260505233634 3 141 12.9 22.5 0.79 8.89 0.23 96 1012.1
20260505233139 3 161 14.5 29.0 0.79 8.89 0.23 96 1012.3
20260505232624 3 148 19.3 29.0 0.79 8.89 0.23 96 1012.2
20260505232129 3 71 12.9 17.7 0.79 8.89 0.23 96 1012.2
20260505231634 3 15 6.4 14.5 0.79 8.89 0.23 96 1012.1
20260505231139 3 61 6.4 11.3 0.79 8.89 0.23 96 1012.3
20260505230624 3 166 4.8 8.0 0.79 8.79 0.20 96 1012.5
20260505230130 3 182 3.2 8.0 0.61 8.61 0.15 96 1012.5
20260505225634 3 190 1.6 9.7 0.61 8.61 0.15 96 1012.5
20260505225124 3 178 6.4 16.1 0.61 8.61 0.15 96 1012.5
20260505224629 3 132 11.3 16.1 0.41 8.41 0.10 96 1012.4
20260505224134 3 130 6.4 11.3 0.10 8.10 0.03 96 1012.3
20260505223637 3 65 1.6 14.5 0.20 8.10 0.03 96 1012.4
20260505223123 3 143 8.0 12.9 0.30 8.10 0.03 96 1012.5
20260505222627 3 278 3.2 14.5 0.41 8.10 0.03 96 1012.5
20260505222132 3 79 8.0 14.5 0.51 8.10 0.03 95 1012.6
20260505221636 3 92 9.7 14.5 0.61 8.10 0.03 96 1012.7
20260505221140 3 67 4.8 6.4 0.61 8.00 0.00 96 1012.7
20260505220623 3 69 3.2 8.0 0.71 8.00 2.03 96 1012.7
20260505220133 2 46 4.8 8.0 0.71 8.00 2.03 96 1012.7
20260505215638 2 103 1.6 4.8 0.79 8.00 2.03 96 1012.9
20260505215123 2 140 1.6 11.3 0.79 8.00 2.03 96 1012.9
20260505214628 2 69 6.4 11.3 0.89 8.00 2.03 96 1013.0
20260505214131 2 109 1.6 9.7 0.89 8.00 2.03 96 1013.0
20260505213636 2 119 3.2 9.7 0.79 7.90 2.01 96 1013.0
20260505213140 2 85 4.8 16.1 0.71 7.80 1.98 96 1013.2
20260505212626 2 347 8.0 16.1 0.61 7.70 1.96 96 1013.3
20260505212131 3 60 4.8 6.4 0.51 7.59 1.93 96 1013.4
20260505211635 3 96 3.2 9.7 0.41 7.49 1.91 96 1013.4
20260505211139 3 138 6.4 11.3 0.30 7.39 1.88 97 1013.4
20260505210628 3 131 1.6 11.3 0.20 7.29 1.85 96 1013.4
20260505210133 3 131 4.8 14.5 0.20 7.29 1.85 96 1013.4
20260505205638 3 147 6.4 14.5 0.10 7.19 1.83 96 1013.4
20260505205142 3 135 3.2 11.3 0.20 7.19 1.83 97 1013.3
20260505204627 3 132 4.8 8.0 0.10 7.11 1.80 97 1013.4
20260505204132 3 89 6.4 9.7 0.20 7.11 1.80 97 1013.4
20260505203636 3 78 4.8 6.4 0.20 7.11 1.80 97 1013.4
20260505203140 3 178 3.2 9.7 0.20 7.11 1.80 97 1013.4
20260505202625 3 123 1.6 8.0 0.20 7.11 1.80 97 1013.4
20260505202130 3 44 4.8 8.0 0.20 7.11 1.80 97 1013.4
20260505201637 3 53 3.2 4.8 0.20 7.11 1.80 97 1013.4
20260505201141 3 45 1.6 4.8 0.20 7.11 1.80 97 1013.4
20260505200625 3 31 1.6 3.2 0.20 7.11 1.80 97 1013.4
20260505200129 3 13 1.6 6.4 0.20 7.11 1.80 97 1013.5
20260505195632 3 15 3.2 6.4 0.20 7.11 1.80 96 1013.5
20260505195136 3 167 1.6 4.8 0.10 7.01 1.78 96 1013.6
20260505194641 3 221 0.0 4.8 0.20 7.01 1.78 96 1013.5
20260505194126 3 221 3.2 4.8 0.20 6.91 1.75 96 1013.4
20260505193631 3 219 1.6 4.8 0.20 6.91 1.75 96 1013.4
20260505193134 3 219 1.6 4.8 0.20 6.91 1.75 96 1013.4
20260505192623 3 218 1.6 4.8 0.30 6.91 1.75 96 1013.3
20260505192130 3 219 1.6 4.8 0.30 6.91 1.75 96 1013.3
20260505191634 3 215 1.6 9.7 0.30 6.91 1.75 96 1013.2
20260505191138 3 309 6.4 9.7 0.30 6.91 1.75 96 1013.2
20260505190642 3 82 3.2 8.0 0.30 6.91 1.75 96 1013.3
20260505190127 3 155 1.6 12.9 0.30 6.91 1.75 96 1013.3
20260505185631 3 172 6.4 12.9 0.30 6.91 1.75 96 1013.2
20260505185134 3 165 4.8 11.3 0.41 6.91 1.75 96 1013.2
20260505184638 3 150 8.0 11.3 0.30 6.81 1.73 96 1013.2
20260505184142 3 123 4.8 8.0 0.20 6.71 1.70 96 1013.1
20260505183627 3 129 3.2 4.8 0.20 6.71 1.70 96 1013.1
20260505183135 3 104 3.2 8.0 0.20 6.71 1.70 96 1013.0
20260505182639 3 149 3.2 8.0 0.10 6.60 1.68 96 1013.0
20260505182123 3 157 3.2 6.4 0.10 6.60 1.68 96 1013.0
20260505181628 3 159 1.6 4.8 0.10 6.60 1.68 96 1013.0
20260505181131 3 125 3.2 6.4 0.10 6.60 1.68 96 1013.0
20260505180141 3 153 3.2 9.7 0.10 6.60 1.68 96 1013.0
20260505175627 3 134 6.4 9.7 0.10 6.60 1.68 96 1012.9
20260505175131 3 138 3.2 6.4 0.00 6.50 1.65 96 1012.8
20260505174633 3 138 3.2 9.7 0.00 6.50 1.65 96 1012.9
20260505174123 3 135 6.4 9.7 0.00 6.50 1.65 96 1012.8
20260505173628 3 89 4.8 9.7 0.10 6.50 1.65 96 1012.9
20260505173134 3 126 4.8 12.9 0.10 6.50 1.65 96 1013.0
20260505172635 3 125 8.0 12.9 0.10 6.50 1.65 96 1012.8
20260505172140 3 134 4.8 9.7 0.10 6.50 1.65 96 1012.9
20260505171626 3 141 4.8 9.7 0.10 6.50 1.65 96 1012.8
20260505171130 3 123 4.8 9.7 0.10 6.50 1.65 96 1012.8
20260505170635 3 157 1.6 8.0 0.10 6.50 1.65 96 1012.8
20260505170139 3 20 4.8 8.0 0.10 6.50 1.65 96 1012.8
20260505165624 3 92 4.8 11.3 0.10 6.50 1.65 96 1012.9
20260505165128 3 112 6.4 11.3 0.10 6.50 1.65 96 1012.9
20260505164637 3 125 4.8 8.0 0.10 6.50 1.65 96 1012.9
20260505164142 3 117 3.2 12.9 0.00 6.40 1.63 96 1013.0
20260505163626 3 135 8.0 14.5 0.00 6.40 1.63 96 1013.0
20260505163131 3 134 6.4 14.5 0.00 6.40 1.63 96 1013.0
20260505162635 3 119 8.0 14.5 0.00 6.40 1.63 96 1013.0
20260505162140 3 128 9.7 12.9 0.10 6.40 1.63 96 1013.0
20260505161624 3 130 9.7 12.9 0.10 6.40 1.63 96 1013.0
20260505161128 3 140 6.4 12.9 0.10 6.40 1.63 96 1013.0
20260505160633 3 115 8.0 14.5 0.10 6.40 1.63 96 1013.1
20260505160138 3 126 4.8 16.1 0.10 6.40 1.63 96 1013.2
20260505153131 3 135 9.7 17.7 0.41 6.40 1.63 96 1013.1
20260505152635 4 124 8.0 19.3 0.51 6.40 1.63 96 1013.1
20260505152140 3 84 4.8 19.3 0.41 6.30 1.60 96 1013.1
20260505151624 3 104 11.3 27.4 0.41 6.30 1.60 96 1013.0
20260505151130 3 92 17.7 27.4 0.41 6.30 1.60 96 1013.0
20260505150633 4 63 11.3 20.9 0.41 6.30 1.60 96 1013.0
20260505150123 3 132 12.9 22.5 0.41 6.30 1.60 96 1013.1
20260505140631 3 25 3.2 14.5 0.10 5.89 1.50 96 1013.1
20260505140136 3 111 8.0 22.5 0.10 5.89 1.50 96 1013.1
20260505130135 3 214 25.7 43.5 0.30 5.79 1.47 95 1013.0
20260505124631 3 55 24.1 41.8 0.51 5.79 1.47 95 1013.0
20260505124132 3 42 25.7 37.0 0.61 5.79 1.47 95 1013.0
20260505123636 3 96 25.7 37.0 0.61 5.69 1.45 95 1012.9
20260505123141 3 56 19.3 33.8 0.61 5.69 1.45 95 1013.0
20260505122630 3 97 24.1 33.8 0.71 5.69 1.45 94 1013.0
20260505122134 3 80 22.5 33.8 0.61 5.59 1.42 94 1013.0
20260505121639 3 346 17.7 35.4 0.61 5.59 1.42 93 1013.1
20260505121125 3 252 20.9 35.4 0.61 5.59 1.42 92 1013.0
20260505120630 3 86 20.9 40.2 0.61 5.51 1.40 93 1013.0
20260505120135 3 20 19.3 40.2 0.61 5.51 1.40 93 1012.8
20260505115639 3 61 19.3 37.0 0.51 5.41 1.37 93 1012.9
20260505115124 3 112 22.5 40.2 0.61 5.41 1.37 92 1013.0
20260505114630 3 101 24.1 43.5 0.51 5.31 1.35 92 1012.9
20260505114135 3 70 29.0 43.5 0.61 5.21 1.32 92 1012.8
20260505113625 3 93 19.3 35.4 0.51 5.11 1.30 93 1012.8
20260505113130 3 103 17.7 35.4 0.61 5.11 1.30 93 1013.0
20260505112635 3 319 14.5 32.2 0.61 5.00 1.27 93 1013.0
20260505112139 3 327 16.1 45.1 0.61 5.00 1.27 93 1012.8
20260505111623 3 47 17.7 45.1 0.71 5.00 1.27 93 1012.8
20260505111129 3 338 16.1 35.4 0.79 5.00 1.27 92 1012.7
20260505110632 3 273 14.5 32.2 0.71 4.90 1.24 92 1012.9
20260505110136 3 101 16.1 40.2 0.71 4.90 1.24 91 1013.0
20260505102135 2 43 19.3 33.8 0.89 4.39 1.12 90 1013.1
20260505101641 3 274 16.1 30.6 0.79 4.29 1.09 89 1012.9
20260505101125 3 83 16.1 43.5 0.79 4.19 1.07 90 1012.9
20260505100629 3 94 29.0 43.5 0.79 4.19 1.07 89 1012.6
20260505100133 3 65 19.3 35.4 0.79 4.19 1.07 90 1012.8
20260505095638 3 320 17.7 38.6 0.79 4.09 1.04 91 1012.7
20260505095127 2 189 20.9 49.9 0.99 4.09 1.04 90 1012.5
20260505094135 2 80 30.6 45.1 0.99 3.71 0.94 95 1012.7
20260505093638 2 43 16.1 25.7 0.99 3.61 0.91 94 1013.0
20260505093142 2 245 9.7 25.7 1.09 3.61 0.91 94 1013.0
20260505092644 2 186 11.3 25.7 1.09 3.51 0.89 94 1012.9
20260505092129 2 347 11.3 30.6 1.30 3.51 0.89 94 1013.0
20260505091632 2 128 16.1 30.6 1.40 3.51 0.89 93 1012.8
20260505091135 2 145 14.5 29.0 1.40 3.40 0.86 94 1012.6
20260505090639 2 85 14.5 27.4 1.50 3.40 0.86 93 1012.8
20260505090143 1 142 14.5 45.1 1.60 3.40 0.86 93 1012.7
20260505085632 1 167 33.8 45.1 1.50 3.30 0.84 92 1012.5
20260505085137 1 89 22.5 38.6 1.40 3.10 0.79 93 1012.8
20260505084642 1 32 24.1 40.2 1.30 2.90 0.74 93 1012.7
20260505084128 1 239 17.7 30.6 1.19 2.69 0.69 93 1012.6